19-03-2022, 00:00:09,     73,    0.0,    5.6,   0.00,   0.00, 1035.2,   75.2, -999.0
19-03-2022, 00:00:19,     73,    0.0,    5.6,   0.00,   0.00, 1035.3,   75.3, -999.0
19-03-2022, 00:00:29,     73,    0.0,    5.5,   0.00,   0.00, 1035.3,   75.4, -999.0
19-03-2022, 00:00:39,     73,    0.1,    5.6,   0.00,   0.00, 1035.3,   75.7, -999.0
19-03-2022, 00:00:49,     73,    0.1,    5.6,   0.00,   0.00, 1035.4,   75.8, -999.0
19-03-2022, 00:00:59,     73,    0.0,    5.5,   0.00,   0.00, 1035.3,   75.7, -999.0
19-03-2022, 00:01:09,     73,    0.0,    5.5,   0.00,   0.00, 1035.3,   75.7, -999.0
19-03-2022, 00:01:19,     73,    0.0,    5.6,   0.00,   0.00, 1035.3,   75.8, -999.0
19-03-2022, 00:01:29,     73,    0.0,    5.6,   0.00,   0.00, 1035.3,   76.0, -999.0
19-03-2022, 00:01:39,     73,    0.2,    5.7,   0.00,   0.00, 1035.3,   76.2, -999.0
19-03-2022, 00:01:49,     73,    0.0,    5.6,   0.00,   0.00, 1035.3,   76.3, -999.0
19-03-2022, 00:01:59,     73,    0.0,    5.6,   0.00,   0.00, 1035.3,   76.2, -999.0
19-03-2022, 00:02:09,     73,    0.0,    5.6,   0.00,   0.00, 1035.2,   75.8, -999.0
19-03-2022, 00:02:19,     73,    0.0,    5.5,   0.00,   0.00, 1035.2,   75.7, -999.0
19-03-2022, 00:02:29,     36,    0.2,    5.5,   0.00,   0.00, 1035.3,   75.7, -999.0
19-03-2022, 00:02:38,     37,    0.0,    5.5,   0.00,   0.00, 1035.3,   75.7, -999.0
19-03-2022, 00:02:48,     37,    0.1,    5.5,   0.00,   0.00, 1035.3,   76.0, -999.0
19-03-2022, 00:02:59,     37,    0.0,    5.6,   0.00,   0.00, 1035.2,   76.4, -999.0
19-03-2022, 00:03:08,     37,    0.0,    5.5,   0.00,   0.00, 1035.3,   76.5, -999.0
19-03-2022, 00:03:18,     37,    0.0,    5.6,   0.00,   0.00, 1035.2,   76.3, -999.0
19-03-2022, 00:03:28,     37,    0.0,    5.6,   0.00,   0.00, 1035.2,   76.3, -999.0
19-03-2022, 00:03:38,     37,    0.0,    5.6,   0.00,   0.00, 1035.2,   76.4, -999.0
19-03-2022, 00:03:48,     47,    0.5,    5.7,   0.00,   0.00, 1035.3,   76.7, -999.0
19-03-2022, 00:03:58,     49,    0.7,    5.8,   0.00,   0.00, 1035.4,   76.8, -999.0
19-03-2022, 00:04:08,     49,    0.0,    5.7,   0.00,   0.00, 1035.2,   76.3, -999.0
19-03-2022, 00:04:18,     50,    0.0,    5.6,   0.00,   0.00, 1035.2,   76.1, -999.0
19-03-2022, 00:04:28,     49,    0.0,    5.7,   0.00,   0.00, 1035.2,   76.1, -999.0
19-03-2022, 00:04:38,     49,    0.0,    5.7,   0.00,   0.00, 1035.2,   76.3, -999.0
19-03-2022, 00:04:48,     50,    0.0,    5.7,   0.00,   0.00, 1035.2,   76.1, -999.0
19-03-2022, 00:04:58,     49,    0.2,    5.7,   0.00,   0.00, 1035.3,   76.2, -999.0
19-03-2022, 00:05:08,     49,    0.0,    5.7,   0.00,   0.00, 1035.2,   76.0, -999.0
19-03-2022, 00:05:18,     49,    0.0,    5.7,   0.00,   0.00, 1035.3,   76.0, -999.0
19-03-2022, 00:05:28,     49,    0.8,    5.7,   0.00,   0.00, 1035.4,   76.2, -999.0
19-03-2022, 00:05:38,     49,    0.0,    5.6,   0.00,   0.00, 1035.3,   76.0, -999.0
19-03-2022, 00:05:47,     53,    0.0,    5.6,   0.00,   0.00, 1035.2,   75.9, -999.0
19-03-2022, 00:05:57,     49,    0.0,    5.6,   0.00,   0.00, 1035.2,   75.7, -999.0
19-03-2022, 00:06:08,     50,    0.0,    5.5,   0.00,   0.00, 1035.3,   75.7, -999.0
19-03-2022, 00:06:17,     49,    0.0,    5.5,   0.00,   0.00, 1035.3,   75.7, -999.0
19-03-2022, 00:06:27,     50,    0.0,    5.5,   0.00,   0.00, 1035.2,   75.7, -999.0
19-03-2022, 00:06:38,     50,    0.0,    5.5,   0.00,   0.00, 1035.2,   75.7, -999.0
19-03-2022, 00:06:47,     49,    0.0,    5.5,   0.00,   0.00, 1035.2,   75.7, -999.0
19-03-2022, 00:06:57,     49,    0.0,    5.5,   0.00,   0.00, 1035.3,   75.7, -999.0
19-03-2022, 00:07:07,     49,    0.0,    5.5,   0.00,   0.00, 1035.2,   75.8, -999.0
19-03-2022, 00:07:17,     49,    0.0,    5.4,   0.00,   0.00, 1035.3,   75.8, -999.0
19-03-2022, 00:07:27,     49,    0.0,    5.4,   0.00,   0.00, 1035.3,   75.7, -999.0
19-03-2022, 00:07:37,     50,    0.0,    5.4,   0.00,   0.00, 1035.2,   75.8, -999.0
19-03-2022, 00:07:47,     49,    0.0,    5.5,   0.00,   0.00, 1035.3,   75.9, -999.0
19-03-2022, 00:07:57,     49,    0.0,    5.4,   0.00,   0.00, 1035.3,   75.9, -999.0
19-03-2022, 00:08:07,     50,    0.0,    5.4,   0.00,   0.00, 1035.3,   75.9, -999.0
19-03-2022, 00:08:17,     49,    0.0,    5.4,   0.00,   0.00, 1035.2,   75.8, -999.0
19-03-2022, 00:08:27,     50,    0.4,    5.4,   0.00,   0.00, 1035.3,   76.1, -999.0
19-03-2022, 00:08:37,     50,    0.3,    5.4,   0.00,   0.00, 1035.4,   76.3, -999.0
19-03-2022, 00:08:47,     50,    0.3,    5.5,   0.00,   0.00, 1035.4,   76.3, -999.0
19-03-2022, 00:08:56,     50,    0.2,    5.4,   0.00,   0.00, 1035.3,   76.4, -999.0
19-03-2022, 00:09:07,     50,    0.2,    5.5,   0.00,   0.00, 1035.4,   76.6, -999.0
19-03-2022, 00:09:17,     50,    0.0,    5.4,   0.00,   0.00, 1035.3,   76.3, -999.0
19-03-2022, 00:09:26,     49,    0.0,    5.3,   0.00,   0.00, 1035.2,   76.1, -999.0
19-03-2022, 00:09:36,     49,    0.0,    5.3,   0.00,   0.00, 1035.2,   76.1, -999.0
19-03-2022, 00:09:47,     49,    0.0,    5.3,   0.00,   0.00, 1035.3,   76.0, -999.0
19-03-2022, 00:09:56,     50,    0.0,    5.3,   0.00,   0.00, 1035.3,   76.0, -999.0
19-03-2022, 00:10:06,     50,    0.0,    5.2,   0.00,   0.00, 1035.2,   76.0, -999.0
19-03-2022, 00:10:16,     49,    0.0,    5.1,   0.00,   0.00, 1035.2,   75.8, -999.0
19-03-2022, 00:10:26,     50,    0.0,    5.0,   0.00,   0.00, 1035.2,   75.9, -999.0
19-03-2022, 00:10:36,     50,    0.0,    5.0,   0.00,   0.00, 1035.2,   75.9, -999.0
19-03-2022, 00:10:46,     49,    0.0,    5.1,   0.00,   0.00, 1035.2,   75.9, -999.0
19-03-2022, 00:10:56,     50,    0.0,    5.1,   0.00,   0.00, 1035.3,   75.9, -999.0
19-03-2022, 00:11:06,     50,    0.0,    4.9,   0.00,   0.00, 1035.3,   75.9, -999.0
19-03-2022, 00:11:16,     49,    0.0,    4.9,   0.00,   0.00, 1035.3,   75.9, -999.0
19-03-2022, 00:11:26,     50,    0.0,    4.9,   0.00,   0.00, 1035.2,   76.0, -999.0
19-03-2022, 00:11:36,     49,    0.0,    4.9,   0.00,   0.00, 1035.3,   76.0, -999.0
19-03-2022, 00:11:46,     49,    0.0,    4.9,   0.00,   0.00, 1035.3,   76.2, -999.0
19-03-2022, 00:11:56,     50,    0.0,    4.9,   0.00,   0.00, 1035.3,   76.2, -999.0
19-03-2022, 00:12:05,     49,    0.0,    4.9,   0.00,   0.00, 1035.3,   76.3, -999.0
19-03-2022, 00:12:16,     50,    0.0,    4.9,   0.00,   0.00, 1035.3,   76.5, -999.0
19-03-2022, 00:12:26,     49,    0.0,    4.9,   0.00,   0.00, 1035.2,   76.6, -999.0
19-03-2022, 00:12:35,     50,    0.0,    4.9,   0.00,   0.00, 1035.2,   76.7, -999.0
19-03-2022, 00:12:45,     49,    0.0,    4.9,   0.00,   0.00, 1035.2,   76.8, -999.0
19-03-2022, 00:12:56,     49,    0.0,    4.9,   0.00,   0.00, 1035.3,   76.8, -999.0
19-03-2022, 00:13:05,     50,    0.0,    4.9,   0.00,   0.00, 1035.2,   76.7, -999.0
19-03-2022, 00:13:15,     49,    0.0,    4.9,   0.00,   0.00, 1035.3,   76.8, -999.0
19-03-2022, 00:13:25,     50,    0.0,    4.9,   0.00,   0.00, 1035.2,   76.9, -999.0
19-03-2022, 00:13:35,     49,    0.0,    4.8,   0.00,   0.00, 1035.2,   77.1, -999.0
19-03-2022, 00:13:45,     50,    0.0,    4.8,   0.00,   0.00, 1035.2,   77.2, -999.0
19-03-2022, 00:13:55,     49,    0.0,    4.9,   0.00,   0.00, 1035.2,   77.4, -999.0
19-03-2022, 00:14:05,     50,    0.0,    4.9,   0.00,   0.00, 1035.2,   77.4, -999.0
19-03-2022, 00:14:15,     50,    0.0,    4.8,   0.00,   0.00, 1035.2,   77.4, -999.0
19-03-2022, 00:14:25,     49,    0.0,    4.9,   0.00,   0.00, 1035.2,   77.6, -999.0
19-03-2022, 00:14:35,     50,    0.0,    4.8,   0.00,   0.00, 1035.2,   77.6, -999.0
19-03-2022, 00:14:45,     49,    0.0,    4.9,   0.00,   0.00, 1035.2,   77.5, -999.0
19-03-2022, 00:14:55,     49,    0.0,    5.0,   0.00,   0.00, 1035.2,   77.7, -999.0
19-03-2022, 00:15:05,     49,    0.0,    5.0,   0.00,   0.00, 1035.2,   77.7, -999.0
19-03-2022, 00:15:14,     49,    0.0,    5.0,   0.00,   0.00, 1035.2,   77.6, -999.0
19-03-2022, 00:15:25,     50,    0.0,    4.9,   0.00,   0.00, 1035.2,   77.5, -999.0
19-03-2022, 00:15:35,     50,    0.0,    4.8,   0.00,   0.00, 1035.2,   77.6, -999.0
19-03-2022, 00:15:44,     49,    0.0,    4.9,   0.00,   0.00, 1035.2,   77.5, -999.0
19-03-2022, 00:15:54,     50,    0.0,    4.9,   0.00,   0.00, 1035.2,   77.6, -999.0
19-03-2022, 00:16:05,     52,    0.0,    4.9,   0.00,   0.00, 1035.2,   77.7, -999.0
19-03-2022, 00:16:14,     49,    0.0,    4.9,   0.00,   0.00, 1035.2,   77.9, -999.0
19-03-2022, 00:16:24,     54,    0.0,    4.9,   0.00,   0.00, 1035.2,   77.8, -999.0
19-03-2022, 00:16:35,     50,    0.0,    4.9,   0.00,   0.00, 1035.2,   77.9, -999.0
19-03-2022, 00:16:44,     49,    0.0,    4.8,   0.00,   0.00, 1035.2,   77.8, -999.0
19-03-2022, 00:16:54,     49,    0.0,    4.8,   0.00,   0.00, 1035.2,   77.8, -999.0
19-03-2022, 00:17:04,     49,    0.0,    4.9,   0.00,   0.00, 1035.2,   77.8, -999.0
19-03-2022, 00:17:14,     50,    0.0,    4.9,   0.00,   0.00, 1035.2,   78.0, -999.0
19-03-2022, 00:17:24,     50,    0.0,    4.9,   0.00,   0.00, 1035.2,   78.2, -999.0
19-03-2022, 00:17:34,     50,    0.5,    4.9,   0.00,   0.00, 1035.3,   78.4, -999.0
19-03-2022, 00:17:44,     50,    0.0,    4.9,   0.00,   0.00, 1035.3,   78.3, -999.0
19-03-2022, 00:17:54,     50,    0.0,    4.8,   0.00,   0.00, 1035.2,   78.1, -999.0
19-03-2022, 00:18:04,     50,    0.0,    4.8,   0.00,   0.00, 1035.2,   78.1, -999.0
19-03-2022, 00:18:14,     50,    0.0,    4.8,   0.00,   0.00, 1035.2,   77.9, -999.0
19-03-2022, 00:18:24,     50,    0.0,    4.8,   0.00,   0.00, 1035.2,   78.0, -999.0
19-03-2022, 00:18:34,     50,    0.0,    4.7,   0.00,   0.00, 1035.2,   78.0, -999.0
19-03-2022, 00:18:44,     49,    0.0,    4.8,   0.00,   0.00, 1035.2,   78.0, -999.0
19-03-2022, 00:18:53,     50,    0.0,    4.7,   0.00,   0.00, 1035.2,   77.9, -999.0
19-03-2022, 00:19:04,     50,    0.0,    4.7,   0.00,   0.00, 1035.2,   78.0, -999.0
19-03-2022, 00:19:14,     50,    0.0,    4.7,   0.00,   0.00, 1035.2,   78.0, -999.0
19-03-2022, 00:19:23,     50,    0.0,    4.7,   0.00,   0.00, 1035.3,   78.2, -999.0
19-03-2022, 00:19:33,     49,    0.0,    4.6,   0.00,   0.00, 1035.2,   78.3, -999.0
19-03-2022, 00:19:44,     50,    0.0,    4.7,   0.00,   0.00, 1035.2,   78.3, -999.0
19-03-2022, 00:19:53,     50,    0.0,    4.6,   0.00,   0.00, 1035.2,   78.4, -999.0
19-03-2022, 00:20:03,     49,    0.0,    4.6,   0.00,   0.00, 1035.2,   78.4, -999.0
19-03-2022, 00:20:13,     50,    0.0,    4.7,   0.00,   0.00, 1035.3,   78.5, -999.0
19-03-2022, 00:20:23,     49,    0.0,    4.6,   0.00,   0.00, 1035.2,   78.5, -999.0
19-03-2022, 00:20:33,     49,    0.0,    4.7,   0.00,   0.00, 1035.2,   78.6, -999.0
19-03-2022, 00:20:43,     49,    0.0,    4.6,   0.00,   0.00, 1035.3,   78.7, -999.0
19-03-2022, 00:20:53,     50,    0.0,    4.7,   0.00,   0.00, 1035.2,   78.7, -999.0
19-03-2022, 00:21:03,     49,    0.0,    4.6,   0.00,   0.00, 1035.3,   78.8, -999.0
19-03-2022, 00:21:13,     50,    0.0,    4.6,   0.00,   0.00, 1035.3,   78.9, -999.0
19-03-2022, 00:21:23,     50,    0.0,    4.5,   0.00,   0.00, 1035.2,   78.9, -999.0
19-03-2022, 00:21:33,     49,    0.0,    4.7,   0.00,   0.00, 1035.3,   78.8, -999.0
19-03-2022, 00:21:43,     50,    0.0,    4.6,   0.00,   0.00, 1035.3,   78.9, -999.0
19-03-2022, 00:21:53,     50,    0.0,    4.6,   0.00,   0.00, 1035.2,   78.7, -999.0
19-03-2022, 00:22:02,     49,    0.0,    4.6,   0.00,   0.00, 1035.3,   78.6, -999.0
19-03-2022, 00:22:13,     50,    0.0,    4.5,   0.00,   0.00, 1035.3,   78.6, -999.0
19-03-2022, 00:22:23,     49,    0.0,    4.6,   0.00,   0.00, 1035.2,   79.0, -999.0
19-03-2022, 00:22:32,     50,    0.0,    4.6,   0.00,   0.00, 1035.2,   79.1, -999.0
19-03-2022, 00:22:42,     50,    0.0,    4.6,   0.00,   0.00, 1035.2,   79.2, -999.0
19-03-2022, 00:22:53,     50,    0.0,    4.5,   0.00,   0.00, 1035.2,   79.1, -999.0
19-03-2022, 00:23:02,     49,    0.0,    4.4,   0.00,   0.00, 1035.3,   79.0, -999.0
19-03-2022, 00:23:12,     50,    0.0,    4.5,   0.00,   0.00, 1035.2,   79.0, -999.0
19-03-2022, 00:23:22,     49,    0.0,    4.5,   0.00,   0.00, 1035.2,   79.1, -999.0
19-03-2022, 00:23:32,     49,    0.0,    4.5,   0.00,   0.00, 1035.2,   79.2, -999.0
19-03-2022, 00:23:42,     50,    0.0,    4.5,   0.00,   0.00, 1035.2,   79.2, -999.0
19-03-2022, 00:23:52,     49,    0.0,    4.5,   0.00,   0.00, 1035.3,   79.2, -999.0
19-03-2022, 00:24:02,     49,    0.0,    4.6,   0.00,   0.00, 1035.2,   79.2, -999.0
19-03-2022, 00:24:12,     50,    0.0,    4.4,   0.00,   0.00, 1035.3,   79.3, -999.0
19-03-2022, 00:24:22,     49,    0.0,    4.5,   0.00,   0.00, 1035.2,   79.3, -999.0
19-03-2022, 00:24:32,     50,    0.0,    4.5,   0.00,   0.00, 1035.2,   79.5, -999.0
19-03-2022, 00:24:42,     49,    0.0,    4.5,   0.00,   0.00, 1035.2,   79.5, -999.0
19-03-2022, 00:24:52,     49,    0.0,    4.5,   0.00,   0.00, 1035.2,   79.7, -999.0
19-03-2022, 00:25:02,     49,    0.0,    4.6,   0.00,   0.00, 1035.2,   79.7, -999.0
19-03-2022, 00:25:11,     50,    0.0,    4.6,   0.00,   0.00, 1035.2,   79.7, -999.0
19-03-2022, 00:25:22,     49,    0.0,    4.6,   0.00,   0.00, 1035.2,   79.8, -999.0
19-03-2022, 00:25:32,     45,    0.0,    4.6,   0.00,   0.00, 1035.3,   79.7, -999.0
19-03-2022, 00:25:41,     49,    0.0,    4.5,   0.00,   0.00, 1035.3,   79.7, -999.0
19-03-2022, 00:25:52,     49,    0.0,    4.5,   0.00,   0.00, 1035.3,   79.5, -999.0
19-03-2022, 00:26:02,     49,    0.0,    4.5,   0.00,   0.00, 1035.3,   79.6, -999.0
19-03-2022, 00:26:11,     50,    0.0,    4.5,   0.00,   0.00, 1035.3,   79.7, -999.0
19-03-2022, 00:26:21,     50,    0.0,    4.5,   0.00,   0.00, 1035.2,   79.8, -999.0
19-03-2022, 00:26:31,     49,    0.0,    4.5,   0.00,   0.00, 1035.3,   79.8, -999.0
19-03-2022, 00:26:41,     49,    0.0,    4.5,   0.00,   0.00, 1035.3,   79.7, -999.0
19-03-2022, 00:26:51,     49,    0.0,    4.5,   0.00,   0.00, 1035.2,   79.7, -999.0
19-03-2022, 00:27:01,     50,    0.0,    4.5,   0.00,   0.00, 1035.3,   79.6, -999.0
19-03-2022, 00:27:11,     49,    0.0,    4.5,   0.00,   0.00, 1035.3,   79.7, -999.0
19-03-2022, 00:27:21,     49,    0.0,    4.4,   0.00,   0.00, 1035.3,   79.5, -999.0
19-03-2022, 00:27:31,     49,    0.0,    4.4,   0.00,   0.00, 1035.3,   79.6, -999.0
19-03-2022, 00:27:41,     50,    0.0,    4.3,   0.00,   0.00, 1035.3,   79.6, -999.0
19-03-2022, 00:27:51,     49,    0.0,    4.3,   0.00,   0.00, 1035.3,   79.6, -999.0
19-03-2022, 00:28:02,     50,    0.0,    4.3,   0.00,   0.00, 1035.2,   79.8, -999.0
19-03-2022, 00:28:11,     49,    0.0,    4.4,   0.00,   0.00, 1035.2,   79.9, -999.0
19-03-2022, 00:28:21,     50,    0.0,    4.3,   0.00,   0.00, 1035.2,   79.8, -999.0
19-03-2022, 00:28:31,     50,    0.0,    4.3,   0.00,   0.00, 1035.2,   79.8, -999.0
19-03-2022, 00:28:41,     49,    0.0,    4.3,   0.00,   0.00, 1035.2,   79.8, -999.0
19-03-2022, 00:28:51,     50,    0.0,    4.2,   0.00,   0.00, 1035.3,   79.8, -999.0
19-03-2022, 00:29:01,     50,    0.0,    4.2,   0.00,   0.00, 1035.3,   79.7, -999.0
19-03-2022, 00:29:10,     50,    0.0,    4.2,   0.00,   0.00, 1035.3,   79.8, -999.0
19-03-2022, 00:29:21,     49,    0.0,    4.1,   0.00,   0.00, 1035.2,   79.8, -999.0
19-03-2022, 00:29:30,     49,    0.0,    4.2,   0.00,   0.00, 1035.2,   79.9, -999.0
19-03-2022, 00:29:40,     50,    0.0,    4.2,   0.00,   0.00, 1035.3,   79.9, -999.0
19-03-2022, 00:29:50,     50,    0.0,    4.1,   0.00,   0.00, 1035.3,   79.8, -999.0
19-03-2022, 00:30:00,     49,    0.0,    4.1,   0.00,   0.00, 1035.3,   80.0, -999.0
19-03-2022, 00:30:10,     49,    0.0,    4.2,   0.00,   0.00, 1035.3,   80.1, -999.0
19-03-2022, 00:30:20,     50,    0.0,    4.1,   0.00,   0.00, 1035.3,   80.2, -999.0
19-03-2022, 00:30:30,     50,    0.0,    4.2,   0.00,   0.00, 1035.3,   80.2, -999.0
19-03-2022, 00:30:40,     50,    0.0,    4.2,   0.00,   0.00, 1035.3,   80.3, -999.0
19-03-2022, 00:30:50,     49,    0.0,    4.2,   0.00,   0.00, 1035.3,   80.6, -999.0
19-03-2022, 00:31:00,     49,    0.0,    4.2,   0.00,   0.00, 1035.3,   80.6, -999.0
19-03-2022, 00:31:10,     50,    0.0,    4.2,   0.00,   0.00, 1035.3,   80.5, -999.0
19-03-2022, 00:31:20,     49,    0.0,    4.2,   0.00,   0.00, 1035.3,   80.6, -999.0
19-03-2022, 00:31:30,     49,    0.0,    4.1,   0.00,   0.00, 1035.3,   80.5, -999.0
19-03-2022, 00:31:40,     50,    0.0,    4.2,   0.00,   0.00, 1035.3,   80.6, -999.0
19-03-2022, 00:31:50,     50,    0.0,    4.1,   0.00,   0.00, 1035.3,   80.6, -999.0
19-03-2022, 00:32:00,     49,    0.0,    4.1,   0.00,   0.00, 1035.3,   80.7, -999.0
19-03-2022, 00:32:10,     50,    0.0,    4.1,   0.00,   0.00, 1035.3,   80.7, -999.0
19-03-2022, 00:32:19,     49,    0.0,    4.1,   0.00,   0.00, 1035.3,   80.7, -999.0
19-03-2022, 00:32:30,     50,    0.0,    4.2,   0.00,   0.00, 1035.3,   80.8, -999.0
19-03-2022, 00:32:39,     49,    0.0,    4.2,   0.00,   0.00, 1035.3,   81.1, -999.0
19-03-2022, 00:32:49,     50,    0.0,    4.2,   0.00,   0.00, 1035.3,   81.2, -999.0
19-03-2022, 00:32:59,     49,    0.0,    4.3,   0.00,   0.00, 1035.3,   81.2, -999.0
19-03-2022, 00:33:09,     50,    0.0,    4.3,   0.00,   0.00, 1035.3,   81.4, -999.0
19-03-2022, 00:33:19,     50,    0.0,    4.4,   0.00,   0.00, 1035.3,   81.4, -999.0
19-03-2022, 00:33:29,     50,    0.0,    4.4,   0.00,   0.00, 1035.3,   81.4, -999.0
19-03-2022, 00:33:39,     50,    0.0,    4.3,   0.00,   0.00, 1035.3,   81.3, -999.0
19-03-2022, 00:33:49,     50,    0.0,    4.3,   0.00,   0.00, 1035.3,   81.3, -999.0
19-03-2022, 00:33:59,     49,    0.0,    4.3,   0.00,   0.00, 1035.3,   81.1, -999.0
19-03-2022, 00:34:09,     49,    0.0,    4.3,   0.00,   0.00, 1035.3,   81.1, -999.0
19-03-2022, 00:34:19,     49,    0.0,    4.2,   0.00,   0.00, 1035.2,   81.0, -999.0
19-03-2022, 00:34:29,     50,    0.0,    4.1,   0.00,   0.00, 1035.3,   81.0, -999.0
19-03-2022, 00:34:39,     50,    0.0,    4.1,   0.00,   0.00, 1035.2,   80.9, -999.0
19-03-2022, 00:34:49,     50,    0.0,    4.1,   0.00,   0.00, 1035.3,   80.9, -999.0
19-03-2022, 00:34:59,     46,    0.0,    4.1,   0.00,   0.00, 1035.2,   81.0, -999.0
19-03-2022, 00:35:09,     50,    0.0,    4.1,   0.00,   0.00, 1035.3,   81.1, -999.0
19-03-2022, 00:35:19,     49,    0.0,    4.1,   0.00,   0.00, 1035.3,   81.2, -999.0
19-03-2022, 00:35:28,     50,    0.0,    4.0,   0.00,   0.00, 1035.2,   81.2, -999.0
19-03-2022, 00:35:39,     51,    0.0,    4.1,   0.00,   0.00, 1035.3,   81.3, -999.0
19-03-2022, 00:35:49,     50,    0.0,    4.1,   0.00,   0.00, 1035.2,   81.3, -999.0
19-03-2022, 00:35:58,     50,    0.0,    4.0,   0.00,   0.00, 1035.3,   81.2, -999.0
19-03-2022, 00:36:08,     50,    0.0,    4.1,   0.00,   0.00, 1035.3,   81.5, -999.0
19-03-2022, 00:36:19,     50,    0.0,    4.1,   0.00,   0.00, 1035.2,   81.4, -999.0
19-03-2022, 00:36:28,     49,    0.0,    4.0,   0.00,   0.00, 1035.2,   81.6, -999.0
19-03-2022, 00:36:38,     50,    0.0,    4.1,   0.00,   0.00, 1035.2,   81.5, -999.0
19-03-2022, 00:36:48,     50,    0.0,    4.1,   0.00,   0.00, 1035.2,   81.6, -999.0
19-03-2022, 00:36:58,     49,    0.0,    4.1,   0.00,   0.00, 1035.2,   81.6, -999.0
19-03-2022, 00:37:08,     50,    0.0,    4.0,   0.00,   0.00, 1035.2,   81.7, -999.0
19-03-2022, 00:37:18,     50,    0.0,    4.0,   0.00,   0.00, 1035.2,   81.7, -999.0
19-03-2022, 00:37:28,     50,    0.0,    4.1,   0.00,   0.00, 1035.2,   81.8, -999.0
19-03-2022, 00:37:38,     49,    0.0,    4.0,   0.00,   0.00, 1035.2,   81.8, -999.0
19-03-2022, 00:37:48,     49,    0.0,    4.0,   0.00,   0.00, 1035.2,   81.7, -999.0
19-03-2022, 00:37:58,     49,    0.0,    4.0,   0.00,   0.00, 1035.2,   81.8, -999.0
19-03-2022, 00:38:08,     49,    0.0,    4.0,   0.00,   0.00, 1035.2,   81.9, -999.0
19-03-2022, 00:38:18,     50,    0.0,    4.0,   0.00,   0.00, 1035.2,   81.9, -999.0
19-03-2022, 00:38:28,     50,    0.0,    4.0,   0.00,   0.00, 1035.2,   81.8, -999.0
19-03-2022, 00:38:38,     49,    0.0,    4.0,   0.00,   0.00, 1035.2,   82.0, -999.0
19-03-2022, 00:38:48,     49,    0.0,    4.1,   0.00,   0.00, 1035.2,   82.2, -999.0
19-03-2022, 00:38:57,     50,    0.0,    3.9,   0.00,   0.00, 1035.2,   82.2, -999.0
19-03-2022, 00:39:07,     50,    0.0,    4.1,   0.00,   0.00, 1035.2,   82.2, -999.0
19-03-2022, 00:39:18,     49,    0.0,    4.0,   0.00,   0.00, 1035.2,   82.1, -999.0
19-03-2022, 00:39:27,     49,    0.0,    4.0,   0.00,   0.00, 1035.2,   82.1, -999.0
19-03-2022, 00:39:37,     49,    0.0,    4.0,   0.00,   0.00, 1035.2,   82.1, -999.0
19-03-2022, 00:39:47,     49,    0.0,    4.1,   0.00,   0.00, 1035.2,   82.3, -999.0
19-03-2022, 00:39:57,     49,    0.0,    4.0,   0.00,   0.00, 1035.2,   82.3, -999.0
19-03-2022, 00:40:07,     50,    0.0,    4.1,   0.00,   0.00, 1035.2,   82.3, -999.0
19-03-2022, 00:40:17,     49,    0.0,    4.1,   0.00,   0.00, 1035.2,   82.3, -999.0
19-03-2022, 00:40:27,     50,    0.0,    4.0,   0.00,   0.00, 1035.2,   82.3, -999.0
19-03-2022, 00:40:37,     49,    0.0,    4.0,   0.00,   0.00, 1035.2,   82.2, -999.0
19-03-2022, 00:40:47,     50,    0.0,    4.0,   0.00,   0.00, 1035.2,   82.2, -999.0
19-03-2022, 00:40:57,     50,    0.0,    4.0,   0.00,   0.00, 1035.2,   82.3, -999.0
19-03-2022, 00:41:07,     49,    0.0,    4.0,   0.00,   0.00, 1035.2,   82.3, -999.0
19-03-2022, 00:41:17,     50,    0.0,    4.0,   0.00,   0.00, 1035.2,   82.4, -999.0
19-03-2022, 00:41:27,     49,    0.0,    4.0,   0.00,   0.00, 1035.2,   82.4, -999.0
19-03-2022, 00:41:37,     49,    0.0,    4.0,   0.00,   0.00, 1035.2,   82.4, -999.0
19-03-2022, 00:41:47,     49,    0.0,    4.0,   0.00,   0.00, 1035.2,   82.4, -999.0
19-03-2022, 00:41:57,     49,    0.0,    4.0,   0.00,   0.00, 1035.2,   82.4, -999.0
19-03-2022, 00:42:06,     50,    0.0,    4.0,   0.00,   0.00, 1035.2,   82.4, -999.0
19-03-2022, 00:42:16,     49,    0.0,    3.9,   0.00,   0.00, 1035.2,   82.3, -999.0
19-03-2022, 00:42:27,     50,    0.0,    3.9,   0.00,   0.00, 1035.2,   82.3, -999.0
19-03-2022, 00:42:36,     49,    0.0,    3.9,   0.00,   0.00, 1035.2,   82.4, -999.0
19-03-2022, 00:42:46,     49,    0.0,    3.9,   0.00,   0.00, 1035.2,   82.5, -999.0
19-03-2022, 00:42:57,     50,    0.0,    4.0,   0.00,   0.00, 1035.2,   82.7, -999.0
19-03-2022, 00:43:06,     50,    0.0,    4.0,   0.00,   0.00, 1035.2,   82.7, -999.0
19-03-2022, 00:43:16,     50,    0.0,    4.1,   0.00,   0.00, 1035.2,   82.8, -999.0
19-03-2022, 00:43:26,     49,    0.0,    4.1,   0.00,   0.00, 1035.2,   82.9, -999.0
19-03-2022, 00:43:36,     49,    0.0,    4.1,   0.00,   0.00, 1035.2,   82.9, -999.0
19-03-2022, 00:43:46,     49,    0.0,    4.1,   0.00,   0.00, 1035.2,   82.9, -999.0
19-03-2022, 00:43:56,     49,    0.0,    4.1,   0.00,   0.00, 1035.2,   82.8, -999.0
19-03-2022, 00:44:06,     49,    0.0,    4.1,   0.00,   0.00, 1035.2,   82.9, -999.0
19-03-2022, 00:44:16,     50,    0.0,    4.1,   0.00,   0.00, 1035.2,   82.9, -999.0
19-03-2022, 00:44:26,     49,    0.0,    4.1,   0.00,   0.00, 1035.2,   82.9, -999.0
19-03-2022, 00:44:36,     50,    0.0,    4.1,   0.00,   0.00, 1035.2,   83.1, -999.0
19-03-2022, 00:44:46,     49,    0.0,    4.1,   0.00,   0.00, 1035.2,   83.0, -999.0
19-03-2022, 00:44:56,     50,    0.0,    4.1,   0.00,   0.00, 1035.2,   83.0, -999.0
19-03-2022, 00:45:06,     49,    0.0,    4.2,   0.00,   0.00, 1035.2,   83.2, -999.0
19-03-2022, 00:45:15,     49,    0.0,    4.2,   0.00,   0.00, 1035.2,   83.2, -999.0
19-03-2022, 00:45:26,     49,    0.0,    4.3,   0.00,   0.00, 1035.2,   83.1, -999.0
19-03-2022, 00:45:36,     49,    0.0,    4.3,   0.00,   0.00, 1035.2,   83.2, -999.0
19-03-2022, 00:45:45,     49,    0.0,    4.2,   0.00,   0.00, 1035.2,   83.2, -999.0
19-03-2022, 00:45:55,     50,    0.0,    4.3,   0.00,   0.00, 1035.2,   83.1, -999.0
19-03-2022, 00:46:06,     49,    0.0,    4.2,   0.00,   0.00, 1035.2,   83.0, -999.0
19-03-2022, 00:46:15,     49,    0.0,    4.1,   0.00,   0.00, 1035.2,   83.0, -999.0
19-03-2022, 00:46:25,     50,    0.0,    4.3,   0.00,   0.00, 1035.2,   82.9, -999.0
19-03-2022, 00:46:35,     49,    0.0,    4.3,   0.00,   0.00, 1035.2,   82.9, -999.0
19-03-2022, 00:46:45,     49,    0.0,    4.2,   0.00,   0.00, 1035.2,   82.9, -999.0